Flag Weather past 2 weeks in Abilene, Texas, U.S.A.

Now
67 °F

Sunny.


Feels Like: 67 °F
Forecast: 45 / 71 °F
Wind: 24 mph from Southwest

Location: Abilene Regional Airport

Current Time: Nov 28, 2014 at 1:31:45 PM

Latest Report: Nov 28, 2014 at 12:52 PM


Visibility: 10 mi

Pressure: 30.05 "Hg

Humidity: 45%

Dew point: 45 °F

Location of AbileneLocation

Historic Weather in Abilene — Graph

°F

Abilene temperature yesterday

Maximum temperature yesterday: 60 °F (at 2:52 PM)
Minimum temperature yesterday: 34 °F (at 7:52 AM)
Average temperature yesterday: 47 °F

Past Weeks' High & Low Weather Summary

 TemperatureHumidityPressure
High74 °F (Nov 23, 12:52 PM)100% (Nov 16, 8:52 AM)30.61 "Hg (Nov 16, 8:52 AM)
Low22 °F (Nov 17, 4:52 AM)16% (Nov 19, 3:52 PM)29.45 "Hg (Nov 23, 1:52 PM)
Average47 °F59%30.13 "Hg
* Reported Nov 13 11:52 AM — Nov 28 11:52 AM, Abilene, Weather by CustomWeather, © 2014

Note: Actual official high and low records may vary slightly from our data, if they occured in-between our weather recording intervals... More about our weather records

Advertising

Abilene weather history for previous 24 hours

 ConditionsComfort  
Time TempWeatherWind HumidityBarometerVisibility
11:52 AM
Nov 28
62 °FSunny.28 mph54%30.10 "Hg10 mi
10:52 AM58 °FSunny.24 mph62%30.14 "Hg10 mi
9:52 AM55 °FSunny.18 mph69%30.17 "Hg10 mi
8:52 AM51 °FSunny.23 mph71%30.17 "Hg10 mi
7:52 AM49 °FSunny.17 mph74%30.16 "Hg10 mi
6:52 AM48 °FClear.14 mph66%30.18 "Hg10 mi
5:52 AM48 °FClear.12 mph61%30.18 "Hg10 mi
4:52 AM48 °FClear.14 mph59%30.19 "Hg10 mi
3:52 AM48 °FClear.15 mph56%30.21 "Hg10 mi
2:52 AM49 °FClear.10 mph55%30.21 "Hg10 mi
1:52 AM50 °FClear.13 mph50%30.22 "Hg10 mi
12:52 AM51 °FClear.16 mph48%30.24 "Hg10 mi
11:52 PM
Nov 27
51 °FClear.15 mph46%30.26 "Hg10 mi
10:52 PM50 °FClear.12 mph48%30.29 "Hg10 mi
9:52 PM49 °FClear.10 mph50%30.30 "Hg10 mi
8:52 PM47 °FClear.9 mph56%30.32 "Hg10 mi
7:52 PM47 °FClear.8 mph59%30.34 "Hg10 mi
6:52 PM49 °FClear.8 mph55%30.35 "Hg10 mi
5:52 PM53 °FClear.7 mph45%30.35 "Hg10 mi
4:52 PM58 °FSunny.13 mph36%30.35 "Hg10 mi
3:52 PM60 °FSunny.10 mph33%30.36 "Hg10 mi
2:52 PM60 °FSunny.9 mph32%30.37 "Hg10 mi
1:52 PM58 °FSunny.15 mph33%30.40 "Hg10 mi
Weather by CustomWeather, © 2014

See weather overviewHow to use our weather pages